Location: Jefferson
(30.9666°N, 81.7901°W)
Time: 13:59:55
(UTC+00:00)

Tiangong - Visible Passes

Search period start: 19 September 2024 00:00
Search period end: 29 September 2024 00:00
Orbit: 373 x 377 km, 41.5° (Epoch: 18 September)

Date Brightness Start Highest point End Pass type
(mag) Time Alt. Az. Time Alt. Az. Time Alt. Az.
19 Sep -0.5 00:40:03 10° W 00:42:50 30° NNW 00:44:30 18° NNE visible
20 Sep 0.5 01:15:05 10° NW 01:16:54 15° NNW 01:16:54 15° NNW visible
21 Sep 0.0 00:11:31 10° WNW 00:13:59 21° NNW 00:16:28 10° NE visible
22 Sep 0.5 00:46:34 10° NW 00:48:08 13° N 00:49:13 12° NNE visible
23 Sep 1.0 01:21:00 10° NNW 01:21:11 10° NNW 01:21:11 10° NNW visible
24 Sep 0.5 00:17:40 10° NNW 00:18:58 12° N 00:20:16 10° NNE visible
25 Sep 0.4 00:51:24 10° NNW 00:52:50 13° N 00:52:50 13° N visible
25 Sep 0.4 23:48:14 10° NNW 23:49:31 12° N 23:50:46 10° NNE visible
26 Sep 1.1 01:24:20 10° NW 01:24:33 11° NNW 01:24:33 11° NNW visible
27 Sep 0.0 00:21:23 10° NNW 00:23:22 16° NNE 00:24:14 14° NNE visible
28 Sep -0.2 00:54:10 10° NW 00:55:53 24° NNW 00:55:53 24° NNW visible
28 Sep -0.3 23:51:03 10° NNW 23:53:24 20° NNE 23:55:32 11° ENE visible
